Tracking 29747 objects as of 10-Oct-2024
HD Live streaming from Space Station
objects crossing your sky now

STARLINK-4133

Track STARLINK-4133 now!
10-day predictions
STARLINK-4133 is classified as:


NORAD ID: 53253
Int'l Code: 2022-086M
Perigee: 545.8 km
Apogee: 548.0 km
Inclination: 53.2 °
Period: 95.4 minutes
Semi major axis: 6917 km
RCS: Unknown
Launch date: July 24, 2022
Source: United States (US)
Launch site: AIR FORCE EASTERN TEST RANGE (AFETR)
Your satellite tracking list
Your tracking list is empty




NASA's NSSDC Master Catalog

Two Line Element Set (TLE):
1 53253U 22086M   24283.48971087 -.00000641  00000-0 -22168-4 0  9995
2 53253  53.2191 351.4338 0001525  99.7174 260.3991 15.08835325123138
Source of the keplerian elements: AFSPC